Terminal Aerodrome Forecast
Issued by NWS

Home | Current Version | Previous Version | Text Only | Print | Product List | Glossary Off
Versions: 1 2 3 4 5 6 7 8 9 10 11 12 13 14 15 16 17 18 19 20 21

549
FTUS43 KBIS 230441 AAC
TAFDIK
TAF AMD
KDIK 230441Z 2305/2324 11022G32KT P6SM -SHRA VCTS BKN070CB
      TEMPO 2305/2309 -TSRA OVC040CB
     FM230900 13012G20KT P6SM BKN060
     FM231200 23010G16KT P6SM SCT050
     FM231500 30015G22KT P6SM SCT200=

USA.gov is the U.S. government's official web portal to all federal, state and local government web resources and services.